AQI (44)

Current Conditions for Foresthill, CA. Overcast, Dry   
Visibility: 10 miles
Cloud ht: 7,500 ft
Space WX Alerts: ALERT:  Geomagnetic K-index of 4 ( Latest Alert ) - Issue Time: 2020 Jan 09 0904 UTC

  Summary / Temperature 

Current Temperature
48.1°F
8.9°C
(24/hr Ago)
46.1°F
(Apparent temp)
47.2°F
Cool
Wind Chill Graphs
48.1°F 

48.7°F/ 9.3°C
 --- Virtual Temp: 50.1°F ---

 Temp Rate:

 24/hr Difference:

 Avg Running Temp:

 Todays High:

 Todays Low:

 Y-days High:

 Y-days Low:

 Todays WChill:

 Y-days WChill:

 Evapotranspiration:

-1.1°F/hr 

+2°F

48.8°F

53.9°F 12:24pm

41.9°F 5:12am

50.9°F 2:00pm

43.0°F 1:29am

34.1°F 5:22am

35.3°F 1:15am

0.030 in

115' Above Ground

 Temperature:

 6'AGL VRS 115'AGL:

 Avg Running Temp:

 Humidity:

 Todays High:

 Todays Low:

 Y-days High:

 Y-days Low:

49.0°F 

+0.9°F

49.0°F

0% 

49.0°F 12:00am

49.0°F 12:00am

52.0°F 12:00am

46.0°F 10:46am

Temp & Humidity Graphs

  Wind 

Wind Speed

 Calm

Gusting to

 None

Calm

128°  

Calm

 Avg speed:

 Wind Run:

 Peak Gust:

Calm 

29.0 miles

  18.0 mph 3:05am

  Almanac  

Moon age: 28 days,19 hours,34 minutes,1%

New moon
1%
Illuminated
28 days in cycle

 Moonrise:

 Moonset:

 Sunrise:

 Sunset:

 Solar Noon:

6:33am

4:12pm

7:14am

5:11pm

12:16pm

1min 47s more daylight tomorrow 

  Solar Radiation 

(Current Solar)
  No Sun Light
(Todays High)
 387 W/m2@11:47am

Rain

 Rain Today:

 Rain Rate (/hr):

 Rain last hour:

 Rain Yesterday:

 This Month:

 Season Total:

2 Days Since Last Dry Day

0.00 in

0.000 in

0.00 in

0.11 in

3.50 in

18.60 in

Updated Time

Updated: 1/23/20  7:37pm

(Updated  sec ago)

Humidity & Barometer

 Humidity:

 Wetbulb:

 Dew Point:

 Barometer:

93% 

47.1°F 

46.2°F 

30.182 inHg 

 Baro Trend:  Steady 
Northern Calif
Preparedness
Fire 
Level 

    UV Index  

(Current UV)
0.0  None
(Todays High) @ 11:46am
1.7   Low

National Weather Service Forecast

Tonight

Tonight: Chance Light Rain then Chance Rain Showers
Chance Light Rain
Friday

Friday: Chance Rain Showers then Partly Sunny
Chance Rain Showers
Friday
Night
Friday Night: Mostly Cloudy
Mostly Cloudy
Saturday

Saturday: Partly Sunny Likely
Partly Sunny
Saturday
Night
Saturday Night: Heavy Rain
Heavy Rain
Sunday

Sunday: Rain Showers
Rain Showers
Lo 44 °F Hi 53 °F ↓ Lo 42 °F Hi 57 °F Lo 45 °F Hi 51 °F

Foresthill Probe 2 Stats  
Foresthill Probe 2: is located on Thomas Street
at 3000 feet. The main Foresthill Weather site
is located on Melody ln at the 2860 foot elevation

Calm
47.7°F
8.7°C
Temp Rate:
-1.1°F
Calm
Gusting to
None
(Humidity)
94%
Calm
117°  
Updated: 23/01/20 - 19:38:48
 Todays High: 52.7°F 12:38
 Todays Low: 40.6°F 05:17
 Rain Today: 0.00 in
 Season Total: 17.94 in

Foresthill Wx: Monthly,Yearly, Highs and Lows 

Foresthill  
This Weather Data is coming from the main Foresthill
Weather site located on Melody ln at the 2860 foot
elevation
Not Foresthill Probe 2
Weather Data
Month
  High
Month
  Low
Year
High
Year
Low
Temp 60.6°F
1/19/20
30.5°F
1/15/20
60.6°F
1/19/20
30.5°F
1/15/20
Humidity 100%
1/8/20
30%
1/7/20
100%
1/8/20
30%
1/7/20
Heat Index 62.1°F
1/19/20
35.0°F
1/15/20
62.1°F
1/19/20
35.0°F
1/15/20
Wind Chill 60.6°F
1/19/20
17.7°F
1/15/20
60.6°F
1/19/20
17.7°F
1/15/20
Wind Gust 40 mph
1/16/20
0 mph
1/1/20
40 mph
1/16/20
0 mph
1/1/20
Barometer 30.59 in
1/5/20
29.73 in
1/16/20
30.59 in
1/5/20
29.73 in
1/16/20
ET 0.07 in
1/7/20
0.00 in
1/1/20
0.07 in
1/7/20
0.00 in
1/1/20
Dew Point 49.0°F
1/22/20
24.2°F
1/7/20
49.0°F
1/22/20
24.2°F
1/7/20
Visible Satellite Pacific Satellite US Radar Satellite Imagery Sacramento,CA.  (click to enlarge)
NWS Weather Forecast - Summary
Updated: Thursday, January 23, 2020 - 2:30pm PST
NWS Weather Forecast: Tonight and Friday (Updated: Thu, 23-Jan-2020 2:25pm PST)
Tonight

Tonight: Chance Light Rain then Chance Rain Showers
Chance Light Rain

Lo 44 °F
NWS forecast: A chance of rain before 10pm, then a chance of rain showers. Mostly cloudy, with a low around 44. East southeast wind around 5 mph. Chance of precipitation is 50%. New rainfall amounts less than a tenth of an inch possible.
Friday

Friday: Chance Rain Showers then Partly Sunny
Chance Rain Showers

Hi 53 °F ↓
NWS forecast: A chance of rain showers before 10am. Partly sunny. High near 53, with temperatures falling to around 48 in the afternoon. South southeast wind 2 to 6 mph. Chance of precipitation is 30%. New rainfall amounts less than a tenth of an inch possible.
YR.NO 10 Day Weather forecast
Last update: 01/23/2020 @ 12:57
Next update: 01/23/2020 @ 19:02
Provided by: 22
      Temperature Precipitation Pressure Wind  
Today
01/23/2020
17:00 18:00 48°F < 0.01 in 30.14 inHg Light air from west 2 mph
  18:00 00:00 46°F 0.11 in 30.14 inHg Light air from east-southeast 2 mph
    (Click to enlarge)
meteogram

    Forecast for next 9 days

      Temperature Precip Pressure Wind  
Friday
01/24/2020
00:00 06:00 45°F 0.09 in 30.12 inHg Light breeze from east-southeast 5 mph
  06:00 12:00 39°F   30.15 inHg Light air from east-southeast 3 mph
  12:00 18:00 50°F   30.18 inHg Light breeze from south-southwest 4 mph
  18:00 00:00 46°F   30.17 inHg Calm from east-northeast 0 mph
      Temperature Precip Pressure Wind  
Saturday
01/25/2020
00:00 06:00 41°F   30.17 inHg Light air from east 3 mph
  06:00 12:00 39°F   30.15 inHg Light air from east 3 mph
  12:00 18:00 57°F   30.12 inHg Light air from west-southwest 3 mph
  18:00 00:00 45°F 0.33 in 30.12 inHg Light air from southeast 2 mph
  22:00 04:00 46°F 0.38 in 30.13 inHg Light breeze from south-southeast 4 mph
      Temperature Precip Pressure Wind  
Sunday
01/26/2020
04:00 10:00 45°F 0.37 in 30.15 inHg Light breeze from south-southeast 7 mph
  10:00 16:00 45°F 0.03 in 30.25 inHg Light breeze from south 6 mph
  16:00 22:00 46°F   30.25 inHg Light breeze from southwest 6 mph
  22:00 04:00 39°F   30.37 inHg Light air from east 3 mph
      Temperature Precip Pressure Wind  
Monday
01/27/2020
04:00 10:00 30°F   30.34 inHg Light air from east 3 mph
  10:00 16:00 45°F   30.37 inHg Light air from south-southeast 2 mph
  16:00 22:00 46°F   30.35 inHg Light breeze from west-southwest 4 mph
  22:00 04:00 41°F   30.38 inHg Light air from east 1 mph
      Temperature Precip Pressure Wind  
Tuesday
01/28/2020
04:00 10:00 34°F 0.02 in 30.34 inHg Light air from east 2 mph
  10:00 16:00 45°F 0.07 in 30.37 inHg Light air from south-southeast 3 mph
  16:00 22:00 46°F   30.34 inHg Light air from north 1 mph
  22:00 04:00 36°F   30.35 inHg Light breeze from east 4 mph
      Temperature Precip Pressure Wind  
Wednesday
01/29/2020
04:00 10:00 32°F   30.28 inHg Gentle breeze from east-northeast 8 mph
  10:00 16:00 48°F   30.33 inHg Light air from east-northeast 2 mph
  16:00 22:00 52°F   30.31 inHg Light air from west-southwest 2 mph
  22:00 04:00 36°F   30.35 inHg Light air from east 2 mph
      Temperature Precip Pressure Wind  
Thursday
01/30/2020
04:00 10:00 32°F   30.31 inHg Light air from east 3 mph
  10:00 16:00 52°F   30.35 inHg Light air from west-southwest 2 mph
  16:00 22:00 52°F   30.32 inHg Light breeze from west-southwest 4 mph
  22:00 04:00 34°F   30.32 inHg Light breeze from east 4 mph
      Temperature Precip Pressure Wind  
Friday
01/31/2020
04:00 10:00 36°F   30.29 inHg Light breeze from east-northeast 5 mph
  10:00 16:00 54°F   30.28 inHg Light air from northeast 2 mph
  16:00 22:00 54°F   30.24 inHg Light breeze from west 4 mph
  22:00 04:00 39°F   30.26 inHg Light breeze from east-northeast 7 mph
      Temperature Precip Pressure Wind  
Saturday
02/01/2020
04:00 10:00 34°F   30.22 inHg Light breeze from east-northeast 6 mph
  10:00 16:00 57°F   30.24 inHg Light air from east-northeast 2 mph
  16:00 22:00 59°F   30.21 inHg Light air from west 2 mph

NOAA Local Storm Report
5 MILES EAST OF SHINGLETOWN   ( More )
DATE
01/17/2020
TIME
7:30 AM
COUNTY
SHASTA
STATE
CA
GEOGRAPHIC
40.49N 121.79W
SOURCE
COCORAHS
SNOW MEASURED AT 9.1 INCH
cocorahs observer ca-sh-6 reported 9. 1 inches of new snow.
How Close Are We To this Month's Temperature Record ?
Updated Thursday, Jan 23, 2020- 7:35:00 PM

Current Temperature: 48.1°F

January's High: Temperature Record 71.3°F - Set on Sat, Jan 24, 2015 - 3:19:00 PM
We are currently 23.2°F Less than this Month's record High

January's Low: Temperature Record 24.7°F - Set on Sun, Jan 13, 2013 - 7:29:00 AM
We are currently 23.4°F More than this Month's record Low

Weather History For Thursday, January 23, 2020


On this Day - In Weather History ...
Data courtesy of weatherforyou.com
powered by Cumulus v1.9.3 (1059)
Ambient Weather VWS v14.00
Top Website Map Copyright © 2007 - 2020 Foresthillweather.com Never base important decisions on this or any weather information obtained from the Internet